DW7901 Weather Reports


time (UTC)temp
C
wind
direction
speed
KPH
gust
KPH
rain 1hr
cm
rain 24hr
cm
rain mn
cm
humidity
%
barometer
mb
20260510134004 26 215 3.2 9.7 0.00 0.00 0.00 10 1017.5
20260510122004 24 321 1.6 12.9 0.00 0.00 0.00 16 1018.2
20260510121004 25 245 4.8 12.9 0.00 0.00 0.00 15 1018.4
20260510115003 23 224 11.3 16.1 0.00 0.00 0.00 21 1018.9
20260510114003 24 214 3.2 9.7 0.00 0.00 0.00 18 1018.8
20260510113004 23 188 1.6 12.9 0.00 0.00 0.00 21 1019.1
20260510112004 23 174 6.4 12.9 0.00 0.00 0.00 22 1019.2
20260510111003 23 118 6.4 12.9 0.00 0.00 0.00 22 1019.0
20260510110004 23 121 6.4 11.3 0.00 0.00 0.00 22 1019.6
20260510105004 22 204 6.4 12.9 0.00 0.00 0.00 19 1019.7
20260510104004 21 248 1.6 12.9 0.00 0.00 0.00 20 1019.9
20260510103003 22 138 6.4 14.5 0.00 0.00 0.00 20 1020.0
20260510102004 22 143 9.7 14.5 0.00 0.00 0.00 21 1020.1
20260510101004 21 270 4.8 11.3 0.00 0.00 0.00 25 1020.3
20260510100004 21 244 4.8 12.9 0.00 0.00 0.00 23 1020.3
20260510095004 21 265 4.8 14.5 0.00 0.00 0.00 22 1020.2
20260510094004 22 201 3.2 14.5 0.00 0.00 0.00 23 1020.4
20260510093004 22 173 1.6 12.9 0.00 0.00 0.00 22 1020.5
20260510092003 22 183 6.4 16.1 0.00 0.00 0.00 27 1020.4
20260510091004 20 183 3.2 12.9 0.00 0.00 0.00 30 1020.5
20260510084004 20 189 1.6 9.7 0.00 0.00 0.00 30 1020.9
20260510082003 19 177 6.4 12.9 0.00 0.00 0.00 33 1020.9
20260510081003 18 279 1.6 6.4 0.00 0.00 0.00 33 1021.3
20260510080004 18 210 0.0 8.0 0.00 0.00 0.00 36 1021.3
20260510075004 17 329 3.2 8.0 0.00 0.00 0.00 39 1021.3
20260509202004 6 0 0.0 0.0 0.00 0.00 0.00 89 1022.9
20260509201003 7 0 0.0 0.0 0.00 0.00 0.00 88 1023.3
20260509200004 7 0 0.0 0.0 0.00 0.00 0.00 88 1023.1
20260509195004 7 181 0.0 1.6 0.00 0.00 0.00 87 1023.4
20260509194004 7 0 0.0 0.0 0.00 0.00 0.00 87 1023.3
20260509193004 7 181 0.0 3.2 0.00 0.00 0.00 85 1023.1
20260509192003 8 181 0.0 3.2 0.00 0.00 0.00 84 1023.3
20260509191003 8 181 1.6 4.8 0.00 0.00 0.00 83 1023.4
20260509185004 8 270 0.0 1.6 0.00 0.00 0.00 78 1023.2
20260509184004 10 270 0.0 3.2 0.00 0.00 0.00 77 1023.3
20260509183004 10 270 0.0 1.6 0.00 0.00 0.00 73 1023.1
20260509182004 10 0 0.0 0.0 0.00 0.00 0.00 72 1023.1
20260509181004 11 0 0.0 0.0 0.00 0.00 0.00 70 1023.1
20260509175004 11 225 0.0 1.6 0.00 0.00 0.00 69 1023.0
20260509174004 11 0 0.0 0.0 0.00 0.00 0.00 69 1022.9
20260509173004 11 1 0.0 1.6 0.00 0.00 0.00 69 1022.9
20260509172004 11 0 0.0 0.0 0.00 0.00 0.00 69 1022.8
20260509170004 11 329 1.6 6.4 0.00 0.00 0.00 69 1022.5
20260509164004 11 9 3.2 6.4 0.00 0.00 0.00 69 1022.7
20260509163004 11 29 3.2 11.3 0.00 0.00 0.00 69 1022.7
20260509162004 11 15 3.2 11.3 0.00 0.00 0.00 69 1022.6
20260509160004 12 29 12.9 22.5 0.00 0.00 0.00 67 1022.7
20260509155004 12 329 9.7 19.3 0.00 0.00 0.00 67 1022.9
20260509153004 12 27 14.5 22.5 0.00 0.00 0.00 67 1022.7
20260509152004 12 11 16.1 20.9 0.00 0.00 0.00 65 1022.6
20260509151004 12 2 9.7 24.1 0.00 0.00 0.00 64 1022.8
20260509150004 12 352 14.5 22.5 0.00 0.00 0.00 64 1022.6
20260509145005 12 353 12.9 20.9 0.00 0.00 0.00 64 1022.7
20260509144004 12 32 8.0 27.4 0.00 0.00 0.00 64 1022.4
20260509143003 12 37 9.7 24.1 0.00 0.00 0.00 63 1022.6
20260509142004 13 44 14.5 25.7 0.00 0.00 0.00 60 1022.6
20260509141004 13 352 12.9 24.1 0.00 0.00 0.00 57 1022.4
20260509140005 14 21 12.9 20.9 0.00 0.00 0.00 54 1022.4